Regional Weather Roundup
Issued by NWS Bismarck, ND

Home | Current Version | Previous Version | Text Only | Print | Product List | Glossary On
Versions: 1 2 3 4 5 6 7 8 9 10 11 12 13 14 15 16 17 18 19 20 21 22 23 24 25 26 27 28 29 30 31 32 33 34 35 36 37 38 39 40 41 42 43 44 45 46 47 48 49 50
000
ASUS43 KBIS 180710
RWRBIS

NWR BROADCAST TEXT
NATIONAL WEATHER SERVICE BISMARCK ND
100 AM CST WED JAN 18 2017

NOTE: "FAIR" INDICATES FEW OR NO CLOUDS BELOW 12,000 FEET WITH NO
SIGNIFICANT WEATHER AND/OR OBSTRUCTIONS TO VISIBILITY.


CITY           SKY/WX    TMP DP  RH WIND       PRES   REMARKS
WILLISTON      FAIR      30  22  72 SW13      29.69F WCI  20
MINOT          FAIR      38  27  64 SW18      29.64F
MINOT AFB      FAIR      34  27  75 W14       29.63F
BISMARCK       FAIR      24  17  74 CALM      29.76F
DICKINSON      FAIR      33  21  61 W5        29.75S
GARRISON         N/A     30  22  72 W6        29.69F
HETTINGER ARPT FAIR      28  18  66 CALM      29.81F
JAMESTOWN      FAIR      28  19  69 W14       29.72F WCI  17
CARRINGTON     FAIR      28  23  80 W17G23    29.70F WCI  16
HAZEN            N/A    N/A N/A N/A SW7       29.74F
MANDAN         FAIR      32  23  69 W7        29.75F
RUGBY            N/A     27  23  86 SW14      29.63F WCI  15
STANLEY        FAIR      34  28  80 W18       29.67F
TIOGA          FAIR      30  27  86 SW13      29.67F
WATFORD CITY   FAIR      32  25  74 SW12      29.70F
$$

CITY           SKY/WX    TMP DP  RH WIND       PRES   REMARKS
GRAND FORKS    FAIR      23  16  74 S14       29.68S WCI  11
GRAND FORKS AF FAIR      26  19  73 SW13      29.66F WCI  15
DEVILS LAKE    FAIR      28  23  81 SW12      29.64F WCI  18
FARGO          FAIR      22  18  85 S12       29.76F WCI  10
CAVALIER         N/A     25  19  80 SW9       29.61F WCI  15
GRAFTON        FAIR      25  21  86 SW12      29.66R WCI  14
GWINNER        FAIR      27  23  86 SW17      29.79F WCI  14
ROLLA            N/A    N/A N/A N/A MISG        N/A
$$

CITY           SKY/WX    TMP DP  RH WIND       PRES   REMARKS
ABERDEEN       FAIR      15  11  83 S9        29.85S WCI   3
MOBRIDGE       FAIR      17  10  74 SE7       29.79S WCI   8
BUFFALO          N/A     34  21  59 W9        29.75F
RAPID CITY     FAIR      26  16  65 W6        29.85F WCI  19
GLASGOW        FAIR      29  24  82 S10       29.69R WCI  20
SIDNEY         FAIR      28  22  78 S12       29.73F WCI  18
WOLF POINT     FAIR      13   9  84 NW3       29.71S
GLENDIVE       FAIR      29  21  72 S18       29.74F WCI  16
MILES CITY     FAIR      23  16  74 SE7       29.79F WCI  15
BAKER          FAIR      35  21  56 W12       29.80S
$$

CITY           SKY/WX    TMP DP  RH WIND       PRES   REMARKS
BILLINGS       FAIR      31  13  47 SW29G37   29.80F WCI  16
GREAT FALLS    FAIR      40  26  57 SW23      29.68S
REGINA         CLEAR     32  27  80 SW10      29.55R
ESTEVAN        PTCLDY    30  25  80 SW20      29.60S WCI  18
$$




USA.gov is the U.S. government's official web portal to all federal, state and local government web resources and services.